Location: Bocchiglicro
(39.4167°N, 16.7500°E)
Time: 02:36:27
(UTC+00:00)

STARLINK-1015 - Pass Details

Date: 07 June 2020
Orbit: 549 x 551 km, 53.0° (Epoch: 05 July)

Event Time Altitude Azimuth Distance (km) Brightness Sun altitude
Exits shadow 00:02:48 - 101° (ESE) 1,952 6.5 -25.6°
Enters shadow 01:02:53 -66° 230° (SW) 12,250 10.4 -20.7°
Maximum altitude 01:40:01 80° 138° (SE) 560 3.5 -16.5°
